This is the latest recevied weather packets stored in our database for station/object N7NIP. If no packets are shown the sender has not sent any weather packets the latest 10 day(s).
| Time | Temp. | Humidity | Pressure | Rain* | Wind** | Luminosity | Snow |
|---|---|---|---|---|---|---|---|
| 1777694484 | 13.33° C | 83% | 1029.7 hPa | 0 mm | - | 0 W/m² | - |
| 1777694180 | 13.33° C | 82% | 1029.8 hPa | 0 mm | - | 0 W/m² | - |
| 1777693877 | 13.89° C | 80% | 1029.7 hPa | 0 mm | - | 0 W/m² | - |
| 1777693575 | 13.89° C | 78% | 1029.6 hPa | 0 mm | - | 0 W/m² | - |
| 1777693273 | 14.44° C | 77% | 1029.5 hPa | 0 mm | - | 0 W/m² | - |
| 1777692971 | 14.44° C | 76% | 1029.4 hPa | 0 mm | - | 0 W/m² | - |
| 1777692668 | 15° C | 73% | 1029.2 hPa | 0 mm | - | 1 W/m² | - |
| 1777692364 | 15° C | 71% | 1029.8 hPa | 0 mm | - | 0 W/m² | - |
| 1777692060 | 15° C | 70% | 1029.7 hPa | 0 mm | - | 1 W/m² | - |
| 1777691759 | 15° C | 71% | 1029.6 hPa | 0 mm | - | 2 W/m² | - |
| 1777691456 | 15.56° C | 70% | 1029.4 hPa | 0 mm | - | 4 W/m² | - |
| 1777691155 | 15.56° C | 70% | 1029.4 hPa | 0 mm | - | 7 W/m² | - |
| 1777690852 | 15.56° C | 69% | 1029.2 hPa | 0 mm | - | 13 W/m² | - |
| 1777690549 | 16.11° C | 70% | 1029.1 hPa | 0 mm | - | 17 W/m² | - |
| 1777690247 | 16.11° C | 68% | 1029.2 hPa | 0 mm | - | 19 W/m² | - |
| 1777689945 | 16.11° C | 67% | 1029.2 hPa | 0 mm | - | 21 W/m² | - |
| 1777689643 | 16.11° C | 67% | 1029.1 hPa | 0 mm | - | 25 W/m² | - |
| 1777689340 | 16.67° C | 67% | 1029 hPa | 0 mm | - | 32 W/m² | - |
| 1777689037 | 16.67° C | 66% | 1028.9 hPa | 0 mm | - | 45 W/m² | - |
| 1777688734 | 16.67° C | 66% | 1028.6 hPa | 0 mm | - | 51 W/m² | - |
| 1777688432 | 17.22° C | 66% | 1028.9 hPa | 0 mm | - | 56 W/m² | - |
| 1777688129 | 17.22° C | 66% | 1028.9 hPa | 0 mm | - | 66 W/m² | - |
| 1777687825 | 17.78° C | 64% | 1028.7 hPa | 0 mm | - | 69 W/m² | - |
| 1777687523 | 17.78° C | 64% | 1028.7 hPa | 0 mm | - | 76 W/m² | - |
| 1777687220 | 17.78° C | 64% | 1028.7 hPa | 0 mm | - | 81 W/m² | - |
* Rain latest hour (hover to see other rain measurements)
** Current wind speed in m/s (hover to see current wind gust speed)